Theta_e
318 319 322 334 347 354 356 353 357 361 353 352 350 349 348 350 349 349 353 354 352 350 355 354 357 358 358 355 354 349 345 345 344 338 335 335 337 339 336 336 337 334 334
317 318 324 342 350 352 353 355 355 359 352 352 352 350 349 349 349 350 354 355 352 351 351 357 356 358 352 348 348 348 342 342 342 334 331 327 331 335 337 336 333 335 333
316 319 322 344 352 351 352 355 357 358 353 358 353 351 351 350 346 348 349 351 352 351 354 356 355 352 348 343 345 342 341 340 338 338 331 323 322 329 338 336 333 334 328
316 318 323 338 350 353 356 357 357 358 356 358 355 356 346 344 345 348 348 351 353 354 354 354 349 341 341 339 340 340 339 337 331 333 336 336 332 324 322 331 329 329 328
316 317 319 332 345 352 356 358 358 356 355 357 357 350 351 346 347 347 355 356 354 350 350 347 339 336 339 341 340 339 338 336 333 331 333 332 330 330 322 318 321 325 324
315 317 320 332 340 347 352 357 357 355 355 354 353 356 356 353 347 346 341 343 344 341 340 335 335 337 341 339 336 337 337 335 334 333 330 327 323 321 320 318 319 317 319
315 316 318 325 338 343 349 354 355 352 354 354 352 352 353 353 346 341 338 336 337 334 333 335 335 338 340 337 337 337 336 334 333 332 328 327 324 323 321 317 315 313 316
314 315 319 325 334 342 347 350 353 353 353 353 352 353 357 350 343 339 338 337 337 335 335 332 334 334 334 333 335 333 332 332 329 329 328 324 322 321 319 316 314 311 312
313 315 318 325 330 341 346 348 352 353 353 354 354 355 350 340 338 337 338 336 336 331 330 330 327 329 330 330 331 328 327 328 327 325 324 321 320 319 318 317 316 312 306
311 314 315 321 329 337 345 349 350 349 348 351 351 346 341 339 337 340 339 339 337 335 328 327 324 324 325 325 326 324 324 321 320 320 321 320 318 318 316 315 314 313 309
311 313 315 317 326 333 339 346 346 343 345 346 341 337 338 338 340 340 339 336 335 329 325 319 320 321 321 320 319 319 318 319 319 319 317 316 317 314 313 313 313 311 311
311 312 314 317 322 330 336 343 343 343 341 337 335 333 335 338 337 334 333 332 330 324 317 317 318 318 318 318 318 318 318 317 315 315 313 313 312 314 314 312 312 311 311
309 311 313 316 323 329 336 339 340 336 335 334 333 333 333 331 328 327 327 325 322 319 319 320 316 316 318 318 318 317 315 315 313 313 312 312 311 310 310 310 309 308 307
312 312 312 315 324 330 338 336 335 333 333 332 330 328 324 322 323 324 324 321 321 320 319 318 317 316 316 315 315 313 314 314 312 313 311 309 307 306 306 306 306 304 301
311 314 314 316 325 332 335 334 331 331 330 325 323 320 320 321 322 320 319 319 317 317 316 315 314 313 312 310 313 313 313 313 311 311 309 306 303 300 300 300 301 301 298
311 315 318 320 327 332 333 329 328 326 322 317 316 317 318 319 315 316 314 314 313 312 311 310 309 308 306 300 302 311 312 311 309 308 306 305 301 301 301 298 297 296 297
311 315 320 324 330 331 329 325 320 317 314 311 310 310 312 311 309 308 307 308 310 309 308 308 308 307 305 297 299 304 309 308 306 305 304 302 300 297 298 300 300 298 295
311 316 325 328 331 327 323 317 315 312 310 308 307 306 304 303 303 303 304 303 306 307 306 306 306 304 299 295 297 301 307 305 303 301 302 301 298 294 295 300 299 300 300
315 322 329 328 323 319 316 313 311 308 308 305 304 303 304 303 301 300 300 304 304 304 305 306 305 303 300 295 295 301 303 301 301 298 294 296 295 289 289 298 297 297 297
325 322 320 318 316 314 312 309 307 306 305 305 304 304 304 301 300 301 303 304 304 303 304 303 303 299 299 292 294 299 301 300 298 299 297 288 289 288 288 295 294 293 293
316 316 314 312 311 311 309 306 305 304 306 304 303 302 301 300 301 303 302 302 302 302 302 301 301 300 298 296 293 293 300 298 297 295 294 292 288 288 287 289 291 290 291
309 310 309 308 309 309 307 304 303 305 304 301 299 298 299 300 301 301 301 301 302 301 300 299 298 298 298 294 292 292 292 296 296 294 293 292 288 288 287 290 287 289 292
304 307 305 305 306 307 307 303 304 304 302 301 300 301 300 300 299 300 300 300 301 299 298 297 297 296 296 296 292 291 292 291 294 293 289 289 288 290 292 289 290 291 294
301 303 303 302 303 305 304 305 306 305 303 303 301 300 299 299 299 299 299 299 298 298 298 297 296 297 298 298 299 298 296 292 296 293 295 292 291 290 292 294 294 294 293
299 300 300 300 302 303 304 307 308 307 304 301 300 297 298 297 299 298 298 298 297 297 298 298 298 295 293 291 289 291 294 294 292 293 296 295 294 293 293 294 294 294 293
296 298 299 299 302 304 304 305 304 304 300 297 297 296 296 296 295 294 293 289 290 290 290 290 293 292 290 289 288 288 287 288 288 294 293 293 292 292 292 292 292 293 292
Wind_Speed
19 21 19 19 20 20 18 21 22 19 13 14 14 12 11 10 9 9 11 12 10 12 9 7 7 4 5 4 5 3 2 1 2 6 4 3 4 4 3 3 2 1 2
16 18 16 19 20 19 19 22 22 20 16 13 12 10 10 10 10 9 10 11 12 11 9 6 6 4 6 5 4 3 2 1 2 3 3 3 6 6 6 4 4 2 5
16 16 17 20 19 20 22 24 23 22 20 16 11 10 9 9 10 11 10 8 9 10 8 8 6 5 3 4 3 3 2 1 3 5 5 4 7 7 6 7 5 4 6
17 15 16 20 22 22 25 24 23 21 20 18 15 14 13 12 11 10 10 10 11 11 10 10 8 6 5 3 3 3 1 2 1 2 2 5 6 6 6 4 7 6 7
19 18 18 20 22 23 22 22 21 22 21 20 16 14 13 10 10 10 12 9 8 11 11 10 8 7 5 4 4 3 4 1 3 4 2 2 2 1 6 9 8 8 7
20 17 16 19 19 19 20 20 23 22 21 21 18 17 14 12 11 10 8 8 7 7 12 10 6 8 7 5 3 4 4 4 4 3 4 4 5 6 7 9 10 11 10
18 18 17 19 20 21 21 21 23 22 22 21 19 18 15 14 15 12 10 10 9 8 9 9 8 9 6 4 5 5 4 4 4 5 3 4 4 5 6 7 10 11 11
16 16 16 17 20 21 21 21 22 22 22 21 19 17 16 11 9 11 12 9 10 11 11 9 7 11 6 4 4 4 3 4 5 6 6 4 5 5 6 7 9 10 10
12 12 10 12 17 20 21 21 22 20 19 17 15 15 16 15 14 16 14 12 15 12 11 13 8 10 8 4 3 4 4 4 5 5 5 5 5 5 6 6 8 9 12
14 12 9 10 12 15 18 19 19 16 15 16 14 14 16 17 17 16 18 17 16 16 14 13 10 11 8 7 5 5 5 5 4 4 5 6 6 5 6 7 7 8 10
17 13 11 9 11 14 16 17 16 17 15 15 17 18 17 17 16 17 16 17 16 15 15 12 12 13 9 7 6 6 5 6 6 6 6 5 6 7 7 7 7 8 8
17 16 13 9 10 14 16 17 16 17 16 18 18 17 18 17 16 14 16 17 16 15 13 12 14 13 10 8 6 6 6 7 7 7 5 8 7 8 7 7 8 8 10
14 13 14 10 9 13 16 16 16 16 18 19 18 17 17 17 16 16 17 18 17 16 14 14 13 12 9 8 7 7 7 8 8 6 8 9 9 8 8 7 9 9 10
9 13 12 12 10 14 18 15 15 17 18 18 18 19 18 19 17 18 19 18 17 16 14 13 13 11 9 8 8 7 7 9 7 8 8 9 9 9 10 9 10 10 11
8 11 14 14 13 16 18 16 17 19 19 18 19 19 19 19 18 19 18 17 15 15 14 15 12 10 8 6 8 8 9 8 8 7 7 10 9 9 8 9 11 11 10
4 6 15 17 17 19 16 19 18 18 20 19 20 20 22 21 19 19 17 17 17 15 15 13 13 11 9 10 12 5 8 9 7 7 7 7 13 12 6 5 8 6 10
10 9 15 17 17 18 18 19 19 19 21 21 19 21 21 22 20 18 17 16 17 16 15 14 14 13 12 8 8 6 9 9 9 9 9 9 10 13 13 8 6 5 6
13 11 13 16 18 18 19 20 20 19 21 21 21 21 22 20 18 17 18 15 15 15 14 14 14 13 9 5 4 6 10 10 11 11 11 10 12 14 14 12 10 10 9
12 9 12 17 17 20 21 21 20 20 21 22 22 21 21 21 18 17 16 14 16 15 14 13 14 13 11 6 7 4 8 9 10 12 13 12 12 17 20 11 12 12 11
8 15 17 19 20 19 21 23 21 22 21 22 22 21 20 20 19 16 16 16 15 15 13 15 14 13 11 10 11 6 6 7 7 8 10 17 13 14 16 12 13 13 13
18 19 17 18 19 19 23 23 22 22 21 23 22 21 19 20 18 17 16 16 16 16 15 15 13 13 12 12 15 18 8 7 7 7 7 9 10 7 12 11 12 12 14
17 17 18 19 18 21 25 23 24 22 21 23 24 21 19 15 16 18 16 17 16 16 15 14 12 11 12 12 13 13 14 11 8 8 7 8 9 5 5 11 12 14 12
16 16 21 20 17 20 24 26 22 23 23 24 23 21 21 18 16 16 16 14 13 12 12 10 10 10 9 9 9 8 9 11 9 7 3 8 11 6 3 2 9 10 11
17 16 23 22 19 20 24 23 22 23 24 25 23 20 19 16 16 12 11 11 10 10 10 10 9 8 7 6 5 6 6 8 4 8 4 3 7 1 5 8 10 11 10
14 16 21 21 20 20 23 20 22 24 24 22 20 18 15 15 13 13 10 11 13 9 10 9 9 9 9 9 12 12 8 7 6 8 5 6 8 9 9 10 11 10 11
16 19 21 21 19 21 23 22 23 22 22 20 15 14 14 15 14 15 16 22 19 21 21 21 13 12 13 12 12 10 9 9 12 4 7 8 9 10 10 10 10 11 12
Wind_Direction
235 227 214 203 188 188 173 181 188 181 165 186 191 188 185 185 181 174 166 173 168 176 173 173 152 186 179 114 135 146 156 145 310 270 158 127 173 202 174 198 210 192 250
227 219 217 194 184 177 178 181 186 176 176 193 193 188 186 182 174 168 170 174 172 171 177 153 157 164 131 126 140 195 198 147 19 331 277 248 176 189 213 234 236 283 287
237 207 209 190 178 180 181 185 185 176 181 193 181 179 176 175 178 168 170 160 161 164 155 149 119 113 106 120 134 146 247 185 70 8 327 305 333 342 145 187 252 298 316
227 237 197 200 188 186 189 187 182 177 182 185 179 177 177 181 180 170 162 154 150 147 134 123 115 102 69 96 106 38 27 340 130 204 39 4 359 328 311 184 198 240 275
224 214 211 198 194 190 191 185 178 179 180 184 181 174 191 181 167 162 126 126 113 120 121 119 115 104 107 22 78 88 45 98 320 341 333 16 299 274 310 308 324 314 334
224 216 210 191 195 192 192 180 179 180 180 179 184 183 185 175 151 131 134 117 104 98 104 104 109 89 91 125 124 85 72 40 26 22 358 358 339 335 322 313 314 318 321
213 216 206 194 186 188 190 181 180 178 177 178 183 178 175 141 146 143 128 125 114 107 111 118 113 106 101 135 123 103 103 71 55 13 21 0 355 337 329 317 315 315 315
205 209 204 196 185 182 184 184 179 176 177 176 176 173 156 143 132 127 128 125 125 127 124 103 97 85 109 89 102 114 83 89 76 48 22 345 350 337 332 326 318 315 325
189 188 196 202 192 174 179 179 176 178 176 166 163 165 128 127 133 125 122 132 130 123 122 109 100 89 98 118 126 106 115 87 55 62 17 329 350 346 340 336 327 325 313
202 195 194 184 197 180 170 171 172 165 160 153 148 128 129 128 130 134 136 140 135 132 126 118 121 109 110 112 140 134 94 80 59 45 26 358 5 351 352 339 328 325 317
201 198 186 182 183 183 173 168 157 144 153 132 128 129 129 133 136 135 132 135 133 127 122 122 121 118 118 106 98 102 105 95 82 60 43 37 12 3 2 336 346 325 338
210 200 190 173 179 176 170 163 141 149 131 129 127 131 129 129 127 128 127 135 127 128 119 124 120 114 125 124 127 114 102 85 75 66 51 32 19 5 16 342 357 348 332
232 224 193 174 169 168 160 144 148 130 131 129 132 127 125 121 118 119 124 125 125 119 118 121 116 113 118 123 116 100 96 94 82 66 51 38 25 20 2 352 349 345 334
199 213 199 188 158 163 132 144 132 130 130 131 128 123 122 117 119 126 126 122 124 119 117 111 106 113 113 110 103 111 104 91 79 70 54 41 32 18 8 357 355 354 330
200 197 194 189 158 154 143 133 132 132 129 124 120 119 116 115 120 121 117 116 114 115 110 106 107 102 105 87 116 102 97 94 82 67 75 51 39 38 24 354 353 345 340
250 237 185 179 161 153 139 133 134 129 124 119 119 120 116 117 116 119 113 116 113 110 107 105 100 95 84 32 15 78 90 84 72 68 57 68 38 10 9 17 326 336 343
223 256 188 170 161 135 136 132 123 122 119 118 118 114 115 120 117 117 112 112 109 106 104 100 98 91 89 39 29 43 87 85 74 55 37 29 36 10 350 349 295 203 204
216 234 178 162 127 130 124 119 121 119 118 117 116 115 115 115 110 109 106 105 108 106 102 99 94 93 85 45 46 92 95 85 68 48 39 34 27 15 345 331 351 351 2
210 203 157 124 124 123 123 118 118 118 118 119 117 118 118 114 111 105 107 107 107 107 103 102 101 100 103 27 350 124 98 86 78 76 43 27 26 8 345 352 357 351 5
152 116 119 120 118 121 120 115 117 117 117 119 116 115 113 108 105 108 107 110 108 107 103 99 97 97 96 37 15 9 90 77 93 75 77 57 26 2 348 7 3 358 355
110 114 113 114 114 120 116 111 116 113 118 114 108 103 103 103 105 109 110 112 107 109 109 106 99 92 81 59 33 11 64 66 69 54 54 44 3 336 354 3 15 349 314
94 107 110 107 116 118 112 114 110 116 115 109 102 104 104 106 110 111 113 113 117 116 116 114 108 94 84 66 57 43 35 12 68 48 42 49 320 306 27 13 329 307 317
91 106 101 103 103 112 115 111 117 117 115 107 105 107 109 110 112 117 118 121 125 126 124 117 111 109 105 98 97 83 73 39 67 52 45 273 263 318 98 30 321 350 10
91 104 103 98 102 107 105 111 121 114 111 107 108 110 109 113 117 118 117 117 117 119 116 111 107 106 98 81 80 106 117 162 102 173 85 312 276 291 4 10 17 18 12
89 95 100 99 101 106 103 111 115 113 107 106 105 108 110 107 100 78 83 85 51 69 110 110 108 102 85 62 53 35 39 36 25 308 36 28 26 26 20 18 17 17 7
94 96 94 97 104 106 104 108 110 108 108 110 111 112 116 114 112 103 92 57 59 57 56 53 80 78 85 83 72 57 29 338 312 48 38 31 26 21 15 11 9 12 11